Location: The Saddle
(36.8333°N, 80.3417°W)
Time: 09:23:38
(UTC-04:00)

AO-7 - Visible Passes

Search period start: 27 March 2023 00:00
Search period end: 06 April 2023 00:00
Orbit: 1440 x 1458 km, 101.9° (Epoch: 27 March)

Date Brightness Start Highest point End Pass type
(mag) Time Alt. Az. Time Alt. Az. Time Alt. Az.
27 Mar ? 05:42:33 10° NNE 05:50:40 53° ESE 05:58:41 10° S visible
28 Mar ? 04:44:21 10° NE 04:50:11 21° E 04:55:58 10° SE visible
28 Mar ? 06:35:14 10° NNE 06:43:34 76° WNW 06:51:49 10° SSW visible
29 Mar ? 05:35:35 10° NNE 05:43:34 48° ESE 05:51:27 10° S visible
30 Mar ? 04:37:44 10° NE 04:43:02 18° E 04:48:15 10° SE visible
30 Mar ? 06:28:09 10° NNE 06:36:31 83° WNW 06:44:48 10° SSW visible
31 Mar ? 05:28:38 10° NNE 05:36:28 43° E 05:44:11 10° S visible
01 Apr ? 04:31:15 10° ENE 04:35:51 16° E 04:40:25 10° SE visible
01 Apr ? 06:21:05 10° NNE 06:29:28 89° ESE 06:37:46 10° SSW visible
02 Apr ? 05:21:44 10° NNE 05:29:20 38° E 05:36:53 10° SSE visible
03 Apr ? 04:24:56 10° ENE 04:28:40 13° E 04:32:21 10° ESE visible
03 Apr ? 06:14:01 10° NNE 06:22:25 82° ESE 06:30:43 10° SSW visible
04 Apr ? 05:14:50 10° NE 05:22:14 34° E 05:29:31 10° SSE visible
05 Apr ? 04:19:03 10° ENE 04:21:28 11° E 04:23:52 10° ESE visible
05 Apr ? 06:07:00 10° NNE 06:15:21 75° ESE 06:23:36 10° SSW visible
